QFA11 YSSY-KLAX

Flight info

Callsign QFA11
Flight time N/A
Altitude 33000
Route NOBAR B580 VESUN/N0490F350 B580 ELSAX 15S174E 10S180E CUFFY/N0483F370 02S170W 05N160W 12N150W/N0469F390 19N140W 25N130W FICKY GOATZ2
Aircraft A388/J-SADE2E3FGHIJ3J4J5M1RWXY/LB1D1

Departure

Time N/A
Airport Sydney Kingsford Smith International Airport (YSSY)

Arrival

Time 2026-04-26 03:02
Airport Los Angeles International Airport (KLAX)
Time Latitude Longitude Altitude Speed Heading
2026-04-26 00:23 19.90472 -138.60295 39020 ft 549 kts 54°
2026-04-26 00:23 19.94048 -138.54705 39017 ft 549 kts 54°
2026-04-26 00:24 19.98349 -138.47974 39018 ft 549 kts 54°
2026-04-26 00:24 20.02651 -138.41235 39011 ft 550 kts 54°
2026-04-26 00:25 20.06946 -138.34500 39015 ft 550 kts 54°
2026-04-26 00:25 20.11245 -138.27750 39017 ft 551 kts 54°
2026-04-26 00:26 20.15514 -138.21039 39021 ft 551 kts 54°
2026-04-26 00:26 20.19804 -138.14289 39027 ft 552 kts 54°
2026-04-26 00:27 20.24104 -138.07514 39029 ft 552 kts 54°
2026-04-26 00:27 20.28404 -138.00732 39021 ft 552 kts 54°
2026-04-26 00:28 20.32701 -137.93946 39033 ft 552 kts 54°
2026-04-26 00:28 20.37001 -137.87147 39030 ft 553 kts 54°
2026-04-26 00:29 20.41295 -137.80350 39029 ft 553 kts 54°
2026-04-26 00:29 20.45566 -137.73582 39032 ft 553 kts 54°
2026-04-26 00:30 20.49859 -137.66771 39027 ft 553 kts 54°
2026-04-26 00:30 20.54150 -137.59955 39033 ft 553 kts 54°
2026-04-26 00:31 20.58444 -137.53126 39024 ft 553 kts 54°
2026-04-26 00:31 20.62725 -137.46310 39026 ft 553 kts 54°
2026-04-26 00:32 20.67010 -137.39480 39027 ft 553 kts 54°
2026-04-26 00:32 20.73433 -137.29225 39018 ft 554 kts 54°
2026-04-26 00:33 20.77691 -137.22417 39025 ft 554 kts 54°
2026-04-26 00:33 20.81974 -137.15561 39028 ft 554 kts 54°
2026-04-26 00:34 20.86253 -137.08703 39048 ft 554 kts 54°
2026-04-26 00:34 20.90537 -137.01829 39032 ft 555 kts 54°
2026-04-26 00:35 20.94820 -136.94948 39033 ft 555 kts 54°
2026-04-26 00:35 20.99094 -136.88073 39035 ft 555 kts 54°
2026-04-26 00:36 21.03367 -136.81190 39021 ft 556 kts 54°
2026-04-26 00:36 21.07619 -136.74335 39031 ft 556 kts 54°
2026-04-26 00:37 21.11897 -136.67427 39031 ft 556 kts 54°
2026-04-26 00:37 21.16173 -136.60516 39030 ft 556 kts 54°
2026-04-26 00:38 21.20447 -136.53598 39029 ft 557 kts 54°
2026-04-26 00:38 21.24696 -136.46713 39029 ft 557 kts 54°
2026-04-26 00:39 21.28967 -136.39783 39031 ft 557 kts 54°
2026-04-26 00:39 21.33237 -136.32847 39038 ft 557 kts 54°
2026-04-26 00:40 21.37507 -136.25901 39038 ft 557 kts 54°
2026-04-26 00:40 21.41776 -136.18950 39037 ft 557 kts 54°
2026-04-26 00:41 21.46037 -136.12001 39036 ft 557 kts 54°
2026-04-26 00:41 21.50293 -136.05053 39040 ft 557 kts 54°
2026-04-26 00:42 21.54528 -135.98131 39034 ft 557 kts 54°
2026-04-26 00:42 21.58782 -135.91168 39036 ft 557 kts 54°
2026-04-26 00:43 21.63038 -135.84192 39036 ft 557 kts 54°
2026-04-26 00:43 21.67292 -135.77213 39020 ft 558 kts 54°
2026-04-26 00:44 21.71545 -135.70224 39034 ft 558 kts 54°
2026-04-26 00:44 21.75801 -135.63223 39036 ft 559 kts 54°
2026-04-26 00:45 21.80028 -135.56260 39058 ft 559 kts 54°
2026-04-26 00:45 21.84291 -135.49229 39035 ft 560 kts 54°
2026-04-26 00:46 21.88545 -135.42203 39043 ft 560 kts 54°
2026-04-26 00:46 21.92799 -135.35168 39049 ft 560 kts 54°
2026-04-26 00:47 21.97051 -135.28128 39039 ft 561 kts 54°
2026-04-26 00:47 22.01285 -135.21109 39042 ft 561 kts 54°
2026-04-26 00:48 22.05534 -135.14055 39044 ft 561 kts 54°
2026-04-26 00:48 22.09777 -135.07001 39055 ft 561 kts 54°
2026-04-26 00:49 22.14025 -134.99931 39042 ft 562 kts 54°
2026-04-26 00:49 22.18275 -134.92846 39040 ft 562 kts 54°
2026-04-26 00:50 22.22528 -134.85749 39041 ft 563 kts 54°
2026-04-26 00:50 22.26753 -134.78688 39045 ft 563 kts 54°
2026-04-26 00:51 22.31001 -134.71581 39047 ft 563 kts 54°
2026-04-26 00:51 22.35247 -134.64465 39046 ft 563 kts 54°
2026-04-26 00:52 22.39493 -134.57342 39043 ft 563 kts 54°
2026-04-26 00:52 22.43735 -134.50215 39045 ft 564 kts 54°
2026-04-26 00:53 22.47970 -134.43089 39047 ft 564 kts 54°
2026-04-26 00:53 22.52210 -134.35947 39046 ft 564 kts 54°
2026-04-26 00:54 22.56448 -134.28798 39042 ft 565 kts 54°
2026-04-26 00:54 22.60660 -134.21683 39036 ft 565 kts 54°
2026-04-26 00:55 22.64908 -134.14498 39045 ft 566 kts 54°
2026-04-26 00:55 22.69156 -134.07302 39045 ft 567 kts 54°
2026-04-26 00:56 22.73406 -134.00092 39038 ft 568 kts 54°
2026-04-26 00:56 22.77653 -133.92879 39055 ft 568 kts 54°
2026-04-26 00:57 22.81872 -133.85702 39057 ft 568 kts 55°
2026-04-26 00:57 22.86114 -133.78478 39048 ft 568 kts 55°
2026-04-26 00:58 22.90351 -133.71251 39049 ft 568 kts 55°
2026-04-26 00:58 22.94588 -133.64014 39050 ft 568 kts 55°
2026-04-26 00:59 22.98824 -133.56769 39049 ft 568 kts 55°
2026-04-26 00:59 23.03054 -133.49523 39043 ft 568 kts 55°
2026-04-26 01:00 23.07257 -133.42314 39053 ft 568 kts 55°
2026-04-26 01:00 23.11485 -133.35052 39043 ft 570 kts 55°
2026-04-26 01:01 23.15728 -133.27755 39045 ft 570 kts 55°
2026-04-26 01:01 23.19966 -133.20454 39047 ft 571 kts 55°
2026-04-26 01:02 23.24186 -133.13174 39049 ft 572 kts 55°
2026-04-26 01:02 23.28436 -133.05833 39057 ft 573 kts 55°
2026-04-26 01:03 23.32685 -132.98483 39056 ft 573 kts 55°
2026-04-26 01:03 23.36929 -132.91130 39058 ft 573 kts 55°
2026-04-26 01:04 23.41168 -132.83775 39062 ft 574 kts 55°
2026-04-26 01:04 23.45379 -132.76459 39062 ft 573 kts 55°
2026-04-26 01:05 23.49611 -132.69095 39056 ft 573 kts 55°
2026-04-26 01:05 23.53839 -132.61727 39054 ft 573 kts 55°
2026-04-26 01:06 23.58071 -132.54343 39054 ft 573 kts 55°
2026-04-26 01:06 23.62267 -132.47009 39052 ft 573 kts 55°
2026-04-26 01:07 23.66486 -132.39624 39057 ft 574 kts 55°
2026-04-26 01:07 23.70711 -132.32219 39053 ft 574 kts 55°
2026-04-26 01:08 23.74932 -132.24808 39060 ft 575 kts 55°
2026-04-26 01:08 23.79153 -132.17388 39060 ft 575 kts 55°
2026-04-26 01:09 23.83348 -132.10002 39059 ft 575 kts 55°
2026-04-26 01:09 23.87564 -132.02568 39060 ft 575 kts 55°
2026-04-26 01:10 23.91777 -131.95128 39052 ft 575 kts 55°
2026-04-26 01:10 23.95992 -131.87673 39053 ft 575 kts 56°
2026-04-26 01:11 23.99490 -131.81478 39057 ft 575 kts 56°
2026-04-26 01:11 24.04381 -131.72804 39054 ft 576 kts 56°
2026-04-26 01:12 24.07903 -131.66547 39055 ft 576 kts 56°
2026-04-26 01:12 24.12077 -131.59122 39057 ft 576 kts 56°
2026-04-26 01:13 24.16278 -131.51637 39055 ft 577 kts 56°
2026-04-26 01:13 24.20480 -131.44138 39056 ft 577 kts 56°
2026-04-26 01:14 24.24681 -131.36632 39051 ft 578 kts 56°
2026-04-26 01:14 24.28887 -131.29104 39056 ft 579 kts 56°
2026-04-26 01:15 24.33096 -131.21560 39059 ft 579 kts 56°
2026-04-26 01:15 24.37301 -131.14011 39063 ft 580 kts 56°
2026-04-26 01:16 24.41474 -131.06507 39061 ft 580 kts 56°
2026-04-26 01:16 24.45678 -130.98936 39063 ft 581 kts 56°
2026-04-26 01:17 24.49880 -130.91357 39070 ft 581 kts 56°
2026-04-26 01:17 24.54079 -130.83771 39063 ft 581 kts 56°
2026-04-26 01:18 24.58277 -130.76174 39063 ft 581 kts 56°
2026-04-26 01:18 24.62441 -130.68628 39063 ft 581 kts 56°
2026-04-26 01:19 24.66633 -130.61019 39066 ft 581 kts 56°
2026-04-26 01:19 24.70815 -130.53416 39064 ft 581 kts 56°
2026-04-26 01:20 24.74997 -130.45802 39063 ft 581 kts 56°
2026-04-26 01:20 24.79180 -130.38180 39058 ft 581 kts 56°
2026-04-26 01:21 24.83360 -130.30555 39056 ft 582 kts 56°
2026-04-26 01:21 24.87517 -130.22959 39056 ft 583 kts 56°
2026-04-26 01:22 24.91700 -130.15303 39057 ft 583 kts 56°
2026-04-26 01:22 24.95882 -130.07637 39062 ft 584 kts 56°
2026-04-26 01:23 25.00159 -130.00031 39059 ft 580 kts 49°
2026-04-26 01:23 25.05493 -129.93429 39061 ft 576 kts 42°
2026-04-26 01:24 25.10942 -129.86944 39060 ft 576 kts 42°
2026-04-26 01:24 25.16389 -129.80445 39078 ft 576 kts 42°
2026-04-26 01:25 25.21834 -129.73939 39062 ft 577 kts 42°
2026-04-26 01:25 25.27242 -129.67469 39095 ft 577 kts 42°
2026-04-26 01:26 25.32688 -129.60944 39073 ft 577 kts 42°
2026-04-26 01:26 25.38126 -129.54419 39067 ft 577 kts 42°
2026-04-26 01:27 25.43565 -129.47879 39063 ft 577 kts 42°
2026-04-26 01:27 25.49008 -129.41324 39062 ft 577 kts 42°
2026-04-26 01:28 25.54403 -129.34815 39067 ft 576 kts 42°
2026-04-26 01:28 25.59859 -129.28226 39060 ft 576 kts 42°
2026-04-26 01:29 25.65244 -129.21712 39055 ft 577 kts 42°
2026-04-26 01:29 25.70670 -129.15139 39076 ft 577 kts 42°
2026-04-26 01:30 25.76084 -129.08571 39080 ft 577 kts 42°
2026-04-26 01:30 25.81506 -129.01983 39085 ft 577 kts 42°
2026-04-26 01:31 25.86886 -128.95437 39073 ft 577 kts 42°
2026-04-26 01:31 25.92297 -128.88844 39078 ft 577 kts 42°
2026-04-26 01:32 25.97704 -128.82246 39064 ft 577 kts 42°
2026-04-26 01:32 26.03105 -128.75646 39066 ft 577 kts 42°
2026-04-26 01:33 26.08508 -128.69033 39081 ft 577 kts 42°
2026-04-26 01:33 26.13878 -128.62451 39076 ft 577 kts 42°
2026-04-26 01:34 26.19279 -128.55821 39072 ft 577 kts 42°
2026-04-26 01:34 26.24669 -128.49194 39070 ft 577 kts 42°
2026-04-26 01:35 26.30058 -128.42559 39069 ft 577 kts 43°
2026-04-26 01:35 26.35437 -128.35927 39066 ft 576 kts 43°
2026-04-26 01:36 26.40791 -128.29315 39070 ft 576 kts 43°
2026-04-26 01:37 26.48858 -128.19335 39083 ft 577 kts 43°
2026-04-26 01:37 26.54227 -128.12680 39078 ft 577 kts 43°
2026-04-26 01:38 26.59596 -128.06014 39078 ft 576 kts 43°
2026-04-26 01:38 26.64921 -127.99394 39074 ft 576 kts 43°
2026-04-26 01:39 26.70275 -127.92727 39066 ft 576 kts 43°
2026-04-26 01:39 26.75632 -127.86047 39064 ft 576 kts 43°
2026-04-26 01:40 26.80990 -127.79355 39066 ft 576 kts 43°
2026-04-26 01:40 26.86311 -127.72700 39079 ft 577 kts 43°
2026-04-26 01:41 26.91669 -127.65986 39076 ft 577 kts 43°
2026-04-26 01:41 26.97019 -127.59274 39078 ft 577 kts 43°
2026-04-26 01:42 27.02370 -127.52550 39074 ft 578 kts 43°
2026-04-26 01:42 27.07686 -127.45859 39077 ft 578 kts 43°
2026-04-26 01:43 27.13037 -127.39114 39079 ft 579 kts 43°
2026-04-26 01:43 27.18392 -127.32352 39080 ft 579 kts 43°
2026-04-26 01:44 27.23740 -127.25590 39122 ft 579 kts 43°
2026-04-26 01:44 27.29097 -127.18806 39078 ft 580 kts 43°
2026-04-26 01:45 27.34453 -127.12011 39074 ft 580 kts 43°
2026-04-26 01:45 27.39799 -127.05219 39072 ft 580 kts 43°
2026-04-26 01:46 27.45111 -126.98459 39077 ft 580 kts 43°
2026-04-26 01:46 27.50462 -126.91639 39071 ft 580 kts 43°
2026-04-26 01:47 27.55811 -126.84811 39072 ft 581 kts 43°
2026-04-26 01:47 27.61161 -126.77971 39074 ft 581 kts 43°
2026-04-26 01:48 27.66504 -126.71128 39080 ft 582 kts 43°
2026-04-26 01:48 27.71823 -126.64305 39074 ft 582 kts 43°
2026-04-26 01:49 27.77176 -126.57427 39084 ft 582 kts 43°
2026-04-26 01:49 27.82529 -126.50539 39081 ft 582 kts 43°
2026-04-26 01:50 27.87876 -126.43646 39067 ft 582 kts 44°
2026-04-26 01:50 27.93185 -126.36792 39077 ft 582 kts 44°
2026-04-26 01:51 27.98522 -126.29891 39074 ft 583 kts 44°
2026-04-26 01:51 28.03854 -126.22984 39064 ft 583 kts 44°
2026-04-26 01:52 28.09190 -126.16062 39067 ft 584 kts 44°
2026-04-26 01:52 28.14534 -126.09117 39069 ft 584 kts 44°
2026-04-26 01:53 28.19871 -126.02170 39071 ft 584 kts 44°
2026-04-26 01:53 28.25204 -125.95216 39078 ft 584 kts 44°
2026-04-26 01:54 28.30499 -125.88300 39083 ft 584 kts 44°
2026-04-26 01:54 28.35826 -125.81331 39084 ft 584 kts 44°
2026-04-26 01:55 28.41153 -125.74352 39105 ft 584 kts 44°
2026-04-26 01:55 28.46475 -125.67367 39075 ft 585 kts 44°
2026-04-26 01:56 28.51791 -125.60377 39078 ft 584 kts 44°
2026-04-26 01:56 28.57108 -125.53374 39073 ft 584 kts 44°
2026-04-26 01:57 28.62413 -125.46376 39065 ft 584 kts 44°
2026-04-26 01:57 28.67725 -125.39356 39066 ft 584 kts 44°
2026-04-26 01:58 28.72995 -125.32380 39066 ft 585 kts 44°
2026-04-26 01:58 28.78311 -125.25332 39066 ft 585 kts 44°
2026-04-26 01:59 28.83620 -125.18280 39086 ft 586 kts 44°
2026-04-26 01:59 28.88029 -125.12416 39077 ft 586 kts 44°
2026-04-26 02:00 28.93336 -125.05343 39077 ft 586 kts 44°
2026-04-26 02:00 28.98638 -124.98268 39074 ft 586 kts 44°
2026-04-26 02:01 29.03943 -124.91176 39065 ft 586 kts 44°
2026-04-26 02:01 29.09234 -124.84089 39061 ft 586 kts 44°
2026-04-26 02:02 29.14525 -124.76991 39061 ft 586 kts 44°
2026-04-26 02:02 29.19808 -124.69891 39057 ft 587 kts 44°
2026-04-26 02:03 29.25073 -124.62804 39066 ft 588 kts 45°
2026-04-26 02:03 29.30366 -124.55665 39066 ft 587 kts 45°
2026-04-26 02:04 29.35654 -124.48520 39066 ft 587 kts 45°
2026-04-26 02:04 29.40945 -124.41360 39068 ft 588 kts 45°
2026-04-26 02:05 29.46225 -124.34202 39057 ft 588 kts 45°
2026-04-26 02:05 29.51500 -124.27037 39050 ft 588 kts 45°
2026-04-26 02:06 29.56746 -124.19899 39072 ft 588 kts 45°
2026-04-26 02:06 29.62028 -124.12701 39098 ft 589 kts 45°
2026-04-26 02:07 29.67307 -124.05492 39076 ft 589 kts 45°
2026-04-26 02:07 29.72575 -123.98286 39068 ft 588 kts 45°
2026-04-26 02:08 29.77838 -123.91075 39056 ft 588 kts 45°
2026-04-26 02:08 29.83105 -123.83845 39055 ft 588 kts 45°
2026-04-26 02:09 29.88327 -123.76663 39051 ft 588 kts 45°
2026-04-26 02:09 29.93579 -123.69426 39047 ft 588 kts 45°
2026-04-26 02:10 29.98826 -123.62185 39046 ft 588 kts 45°
2026-04-26 02:10 30.04073 -123.54931 39066 ft 589 kts 45°
2026-04-26 02:11 30.09313 -123.47671 39062 ft 588 kts 45°
2026-04-26 02:11 30.14543 -123.40413 39058 ft 588 kts 45°
2026-04-26 02:12 30.19767 -123.33150 39052 ft 587 kts 45°
2026-04-26 02:12 30.24981 -123.25888 39049 ft 587 kts 46°
2026-04-26 02:13 30.30194 -123.18613 39047 ft 587 kts 46°
2026-04-26 02:13 30.35403 -123.11333 39035 ft 587 kts 46°
2026-04-26 02:14 30.40611 -123.04039 39066 ft 587 kts 46°
2026-04-26 02:14 30.45811 -122.96742 39053 ft 587 kts 46°
2026-04-26 02:15 30.50964 -122.89498 39047 ft 586 kts 46°
2026-04-26 02:15 30.56154 -122.82189 39043 ft 586 kts 46°
2026-04-26 02:16 30.61337 -122.74876 39041 ft 586 kts 46°
2026-04-26 02:16 30.66523 -122.67547 39036 ft 586 kts 46°
2026-04-26 02:17 30.71691 -122.60228 39030 ft 586 kts 46°
2026-04-26 02:17 30.76855 -122.52901 39028 ft 586 kts 46°
2026-04-26 02:18 30.81987 -122.45606 39048 ft 586 kts 46°
2026-04-26 02:18 30.87144 -122.38262 39041 ft 586 kts 46°
2026-04-26 02:19 30.92298 -122.30907 39038 ft 586 kts 47°
2026-04-26 02:19 30.97441 -122.23556 39025 ft 586 kts 47°
2026-04-26 02:20 31.02591 -122.16180 39031 ft 585 kts 47°
2026-04-26 02:20 31.07733 -122.08802 39027 ft 585 kts 47°
2026-04-26 02:21 31.12868 -122.01419 39019 ft 586 kts 47°
2026-04-26 02:21 31.17970 -121.94070 39021 ft 586 kts 47°
2026-04-26 02:22 31.23099 -121.86668 39039 ft 585 kts 47°
2026-04-26 02:22 31.28217 -121.79269 39033 ft 585 kts 47°
2026-04-26 02:23 31.33335 -121.71862 39023 ft 585 kts 47°
2026-04-26 02:23 31.38451 -121.64446 39022 ft 585 kts 47°
2026-04-26 02:24 31.43567 -121.57017 39014 ft 585 kts 47°
2026-04-26 02:24 31.48669 -121.49594 39007 ft 585 kts 47°
2026-04-26 02:25 31.53617 -121.42078 39008 ft 588 kts 54°
2026-04-26 02:25 31.57630 -121.33702 39009 ft 590 kts 65°
2026-04-26 02:26 31.60731 -121.24772 39006 ft 591 kts 68°
2026-04-26 02:26 31.63848 -121.15849 39026 ft 591 kts 68°
2026-04-26 02:27 31.66946 -121.06910 39037 ft 591 kts 68°
2026-04-26 02:27 31.70025 -120.97972 39031 ft 590 kts 68°
2026-04-26 02:28 31.73094 -120.89034 39023 ft 589 kts 68°
2026-04-26 02:28 31.76152 -120.80103 39019 ft 589 kts 68°
2026-04-26 02:29 31.79185 -120.71221 39012 ft 589 kts 68°
2026-04-26 02:29 31.82224 -120.62296 39007 ft 588 kts 68°
2026-04-26 02:30 31.85259 -120.53361 39007 ft 588 kts 68°
2026-04-26 02:30 31.88287 -120.44422 39001 ft 588 kts 68°
2026-04-26 02:31 31.91311 -120.35471 38995 ft 588 kts 68°
2026-04-26 02:31 31.94985 -120.26890 38991 ft 585 kts 54°
2026-04-26 02:32 32.00072 -120.19485 38985 ft 579 kts 42°
2026-04-26 02:32 32.05550 -120.12593 38985 ft 580 kts 43°
2026-04-26 02:33 32.11048 -120.05625 38986 ft 580 kts 43°
2026-04-26 02:33 32.16564 -119.98634 38986 ft 581 kts 43°
2026-04-26 02:34 32.22076 -119.91640 38989 ft 582 kts 43°
2026-04-26 02:34 32.27590 -119.84632 38991 ft 582 kts 43°
2026-04-26 02:35 32.33101 -119.77612 38999 ft 582 kts 43°
2026-04-26 02:35 32.38608 -119.70585 38995 ft 582 kts 43°
2026-04-26 02:36 32.44107 -119.63554 38902 ft 580 kts 43°
2026-04-26 02:36 32.46844 -119.60049 38307 ft 580 kts 43°
2026-04-26 02:36 32.49568 -119.56561 37447 ft 582 kts 43°
2026-04-26 02:36 32.52334 -119.53013 36575 ft 583 kts 43°
2026-04-26 02:37 32.55040 -119.49538 35778 ft 583 kts 44°
2026-04-26 02:37 32.57789 -119.46005 34883 ft 583 kts 44°
2026-04-26 02:37 32.60545 -119.42460 33843 ft 587 kts 44°
2026-04-26 02:37 32.63320 -119.38887 32561 ft 588 kts 44°
2026-04-26 02:38 32.66077 -119.35329 31759 ft 580 kts 44°
2026-04-26 02:38 32.68790 -119.31824 31078 ft 572 kts 44°
2026-04-26 02:38 32.71473 -119.28357 30410 ft 566 kts 44°
2026-04-26 02:38 32.74124 -119.24928 29711 ft 559 kts 44°
2026-04-26 02:39 32.76710 -119.21584 28980 ft 553 kts 45°
2026-04-26 02:39 32.79295 -119.18235 28263 ft 546 kts 45°
2026-04-26 02:39 32.81846 -119.14927 27563 ft 539 kts 45°
2026-04-26 02:39 32.84367 -119.11655 26859 ft 533 kts 45°
2026-04-26 02:40 32.86854 -119.08425 25935 ft 526 kts 45°
2026-04-26 02:40 32.89307 -119.05236 25091 ft 517 kts 45°
2026-04-26 02:40 32.91714 -119.02103 24339 ft 507 kts 45°
2026-04-26 02:40 32.94075 -118.99028 23494 ft 499 kts 45°
2026-04-26 02:41 32.96407 -118.95990 22464 ft 493 kts 45°
2026-04-26 02:41 32.98688 -118.93014 21972 ft 480 kts 45°
2026-04-26 02:41 33.00924 -118.90095 21264 ft 474 kts 45°
2026-04-26 02:41 33.03105 -118.87246 20582 ft 469 kts 46°
2026-04-26 02:42 33.05306 -118.84370 19893 ft 463 kts 45°
2026-04-26 02:42 33.07466 -118.81543 19223 ft 458 kts 46°
2026-04-26 02:42 33.09568 -118.78789 18774 ft 447 kts 46°
2026-04-26 02:42 33.11652 -118.76055 18169 ft 435 kts 45°
2026-04-26 02:43 33.15651 -118.70809 16537 ft 418 kts 46°
2026-04-26 02:43 33.17558 -118.68301 16264 ft 397 kts 46°
2026-04-26 02:43 33.19382 -118.65895 15965 ft 387 kts 47°
2026-04-26 02:44 33.21141 -118.63460 15716 ft 387 kts 48°
2026-04-26 02:44 33.22875 -118.60997 15666 ft 388 kts 49°
2026-04-26 02:44 33.24614 -118.58523 15651 ft 390 kts 49°
2026-04-26 02:44 33.26369 -118.56039 15543 ft 391 kts 48°
2026-04-26 02:45 33.28123 -118.53564 15436 ft 389 kts 48°
2026-04-26 02:45 33.29873 -118.51098 15337 ft 388 kts 48°
2026-04-26 02:45 33.31618 -118.48641 15249 ft 387 kts 48°
2026-04-26 02:45 33.33242 -118.46082 15145 ft 388 kts 61°
2026-04-26 02:46 33.33947 -118.44117 15076 ft 387 kts 75°
2026-04-26 02:46 33.34282 -118.40968 14985 ft 381 kts 94°
2026-04-26 02:46 33.34098 -118.37812 14879 ft 379 kts 99°
2026-04-26 02:46 33.33830 -118.34678 14785 ft 379 kts 99°
2026-04-26 02:47 33.33578 -118.31536 14689 ft 379 kts 98°
2026-04-26 02:47 33.33361 -118.28399 14589 ft 379 kts 97°
2026-04-26 02:47 33.33168 -118.25259 14480 ft 378 kts 97°
2026-04-26 02:47 33.32986 -118.22124 14388 ft 377 kts 97°
2026-04-26 02:48 33.32809 -118.18993 14292 ft 377 kts 97°
2026-04-26 02:48 33.32632 -118.15868 14199 ft 377 kts 97°
2026-04-26 02:48 33.32472 -118.12738 14088 ft 377 kts 92°
2026-04-26 02:48 33.32888 -118.09632 13980 ft 381 kts 71°
2026-04-26 02:49 33.34130 -118.06848 13650 ft 380 kts 51°
2026-04-26 02:49 33.35930 -118.04550 13166 ft 375 kts 41°
2026-04-26 02:49 33.37848 -118.02462 12619 ft 371 kts 40°
2026-04-26 02:49 33.39848 -118.00563 12080 ft 363 kts 26°
2026-04-26 02:50 33.42138 -117.99588 11714 ft 348 kts
2026-04-26 02:50 33.44511 -117.99517 11326 ft 339 kts 352°
2026-04-26 02:50 33.46845 -117.99728 10952 ft 335 kts 351°
2026-04-26 02:50 33.49165 -117.99958 10577 ft 333 kts 351°
2026-04-26 02:51 33.51471 -118.00143 10241 ft 329 kts 353°
2026-04-26 02:51 33.53709 -118.00280 10102 ft 314 kts 353°
2026-04-26 02:51 33.55853 -118.00391 9985 ft 301 kts 353°
2026-04-26 02:51 33.57928 -118.00492 9444 ft 299 kts 353°
2026-04-26 02:52 33.60026 -118.00594 8855 ft 295 kts 354°
2026-04-26 02:52 33.62070 -118.00686 8422 ft 292 kts 354°
2026-04-26 02:52 33.64086 -118.00784 8106 ft 288 kts 351°
2026-04-26 02:52 33.66015 -118.01194 7806 ft 282 kts 340°
2026-04-26 02:53 33.67883 -118.01870 7514 ft 282 kts 340°
2026-04-26 02:53 33.69770 -118.02531 7223 ft 281 kts 340°
2026-04-26 02:53 33.71643 -118.03171 7042 ft 277 kts 340°
2026-04-26 02:53 33.73472 -118.03794 6998 ft 265 kts 340°
2026-04-26 02:54 33.75190 -118.04381 6971 ft 252 kts 340°
2026-04-26 02:54 33.76870 -118.04959 6974 ft 243 kts 340°
2026-04-26 02:54 33.78444 -118.05513 6967 ft 235 kts 336°
2026-04-26 02:54 33.79948 -118.06230 6719 ft 232 kts 334°
2026-04-26 02:55 33.81360 -118.06919 6426 ft 228 kts 334°
2026-04-26 02:55 33.82903 -118.07664 5991 ft 226 kts 334°
2026-04-26 02:55 33.84356 -118.08361 5572 ft 224 kts 334°
2026-04-26 02:55 33.85799 -118.09056 5104 ft 226 kts 335°
2026-04-26 02:56 33.87253 -118.09753 5017 ft 225 kts 335°
2026-04-26 02:56 33.88719 -118.10448 4991 ft 227 kts 338°
2026-04-26 02:56 33.90277 -118.10801 4945 ft 231 kts 355°
2026-04-26 02:56 33.91887 -118.10868 4896 ft 229 kts 351°
2026-04-26 02:57 33.93373 -118.11399 4669 ft 221 kts 326°
2026-04-26 02:57 33.94603 -118.12531 4348 ft 220 kts 318°
2026-04-26 02:57 33.95639 -118.13852 4091 ft 215 kts 294°
2026-04-26 02:57 33.95991 -118.15521 3845 ft 213 kts 271°
2026-04-26 02:58 33.95913 -118.17360 3575 ft 212 kts 262°
2026-04-26 02:58 33.95701 -118.19128 3280 ft 209 kts 263°
2026-04-26 02:58 33.95532 -118.20859 2986 ft 205 kts 262°
2026-04-26 02:58 33.95358 -118.22507 2719 ft 196 kts 263°
2026-04-26 02:59 33.95197 -118.24084 2472 ft 179 kts 263°
2026-04-26 02:59 33.95047 -118.25545 2248 ft 174 kts 263°
2026-04-26 02:59 33.94895 -118.27000 1991 ft 176 kts 262°
2026-04-26 02:59 33.94751 -118.28428 1764 ft 164 kts 262°
2026-04-26 03:00 33.94622 -118.29672 1542 ft 136 kts 262°
2026-04-26 03:00 33.94509 -118.30776 1365 ft 131 kts 261°
2026-04-26 03:00 33.94398 -118.31848 1188 ft 126 kts 262°
2026-04-26 03:00 33.94293 -118.32907 1015 ft 130 kts 262°
2026-04-26 03:01 33.94179 -118.33973 837 ft 125 kts 261°
2026-04-26 03:01 33.94071 -118.35014 658 ft 125 kts 261°
2026-04-26 03:01 33.93959 -118.36059 482 ft 126 kts 262°
2026-04-26 03:01 33.93855 -118.37103 335 ft 126 kts 263°
2026-04-26 03:02 33.93750 -118.38147 148 ft 124 kts 261°
2026-04-26 03:02 33.93653 -118.39098 101 ft 95 kts 262°
2026-04-26 03:02 33.93589 -118.39730 99 ft 61 kts 264°
2026-04-26 03:02 33.93566 -118.40109 102 ft 30 kts 275°
2026-04-26 03:03 33.93598 -118.40299 102 ft 17 kts 288°
2026-04-26 03:03 33.93612 -118.40345 100 ft 7 kts 287°
2026-04-26 03:03 33.93625 -118.40438 102 ft 15 kts 275°
2026-04-26 03:03 33.93612 -118.40581 102 ft 21 kts 262°
2026-04-26 03:04 33.93594 -118.40770 101 ft 23 kts 269°
2026-04-26 03:04 33.93650 -118.40891 100 ft 16 kts 337°
2026-04-26 03:04 33.93739 -118.40911 103 ft 7 kts 353°
2026-04-26 03:04 33.93754 -118.40913 102 ft 1 kts 354°
2026-04-26 03:05 33.93773 -118.40915 100 ft 4 kts 354°
2026-04-26 03:05 33.93828 -118.40922 101 ft 11 kts 352°
2026-04-26 03:05 33.93862 -118.40983 98 ft 14 kts 268°
2026-04-26 03:05 33.93847 -118.41104 99 ft 11 kts 271°
2026-04-26 03:06 33.93886 -118.41163 99 ft 10 kts 346°
2026-04-26 03:06 33.93935 -118.41149 98 ft 6 kts 72°
2026-04-26 03:06 33.93937 -118.41126 98 ft 4 kts 84°
2026-04-26 03:06 33.93942 -118.41071 98 ft 3 kts 83°
2026-04-26 03:07 33.93943 -118.41065 98 ft 1 kts 83°
2026-04-26 03:07 33.93943 -118.41059 98 ft 0 kts 83°